Regional Weather Roundup
Issued by NWS

Home | Current Version | Previous Version | Text Only | Print | Product List | Glossary Off
Versions: 1 2 3 4 5 6 7 8 9 10 11 12 13 14 15 16 17 18 19 20 21 22 23 24 25 26 27 28 29 30 31 32 33 34 35 36 37 38 39 40 41 42 43 44 45 46 47 48 49 50

000
ASUS45 KPSR 030200
RWRAZ

ARIZONA HOURLY REGIONAL WEATHER ROUNDUP
NATIONAL WEATHER SERVICE PHOENIX AZ
700 PM MST SUN AUG 02 2015

NOTE: FAIR INDICATES FEW OR NO CLOUDS BELOW 12,000 FEET WITH NO
SIGNIFICANT WEATHER AND/OR OBSTRUCTIONS TO VISIBILITY.

AZZ001>003-036-030300-
NORTHWEST ARIZONA

CITY           SKY/WX    TMP DP  RH WIND       PRES   REMARKS
KINGMAN        CLEAR     94  44  17 W9        29.92R
$$

AZZ004>008-015-016-018-030300-
NORTH CENTRAL ARIZONA

CITY           SKY/WX    TMP DP  RH WIND       PRES   REMARKS
GRAND CANYON   CLEAR     73  53  49 CALM      30.18S
WILLIAMS       PTCLDY    70  57  64 CALM      30.25S
PRESCOTT       PTCLDY    84  48  28 SW8       30.05R
FLAGSTAFF      NOT AVBL
PAYSON         MOCLDY    75  54  46 NE8       30.09F
PAGE           MOCLDY    80  59  48 N9        30.03R
$$

AZZ009>014-017-030300-
NORTHEAST ARIZONA

CITY           SKY/WX    TMP DP  RH WIND       PRES   REMARKS
WINSLOW        NOT AVBL
SAINT JOHNS    CLOUDY    80  53  39 NW12G18   30.09R
$$

AZZ023-030300-
GREATER PHOENIX AREA

CITY           SKY/WX    TMP DP  RH WIND       PRES   REMARKS
PHOENIX        PTCLDY   106  45  12 W12       29.69S HX 101
GLENDALE       PTCLDY   108  45  12 SW12      29.70S HX 103
DEER VALLEY    PTCLDY   104  49  15 W9        29.71S HX 101
SCOTTSDALE     CLEAR    104  46  14 SW10G16   29.74S HX 100
MESA-FALCON    PTCLDY   104  48  15 W9        29.73R HX 100
MESA-GATEWAY   PTCLDY   102  50  17 CALM      29.75S
CHANDLER       PTCLDY   104  50  16 SW7       29.72S HX 101
$$

AZZ027-028-030300-
SOUTHWEST MARICOPA COUNTY AND PINAL COUNTY

CITY           SKY/WX    TMP DP  RH WIND       PRES   REMARKS
CASA GRANDE    CLEAR    102  50  17 W5        29.74R
GILA BEND      FAIR     106  43  12 W8        29.68S HX 101
$$

AZZ503-504-507>509-030300-
SOUTHEAST ARIZONA

CITY           SKY/WX    TMP DP  RH WIND       PRES   REMARKS
TUCSON         PTCLDY    98  53  22 N9        29.86R
DAVIS-MONTHAN  CLEAR     97  53  22 NW9       29.85R
NOGALES        PTCLDY    89  57  33 CALM      29.98R
SIERRA VISTA   PTCLDY    83  55  38 W10       30.05R
SAFFORD        PTCLDY    91  55  29 W23G32    29.87R THUNDER
$$

AZZ020-021-025-026-031-030300-
SOUTHWEST ARIZONA

CITY           SKY/WX    TMP DP  RH WIND       PRES   REMARKS
YUMA           CLEAR    107  55  18 SW15      29.65R HX 106
$$

CAZ031-033-041-043-047-048-061-030300-
SOUTHERN CALIFORNIA

CITY           SKY/WX    TMP DP  RH WIND       PRES   REMARKS
DOWNTOWN L.A.  PTCLDY    75  63  66 CALM      29.82F
L.A. AIRPORT   PTCLDY    72  62  71 SW14      29.83F
SAN DIEGO      PTCLDY    73  63  70 NW6       29.86S
BURBANK        PTCLDY    81  63  54 SE7       29.82F
ONTARIO        PTCLDY    84  62  47 W10       29.82F
RIVERSIDE      CLEAR     84  62  47 W7        29.82S
PALM SPRINGS   CLEAR    106  55  18 NW18      29.68R HX 105
EL CENTRO NAS  CLEAR    109  41  10 CALM      29.63S HX 103
IMPERIAL       CLEAR    109  44  11 CALM      29.61F HX 104
BLYTHE         PTCLDY   108  53  16 S6        29.64F HX 106
$$

NVZ020-UTZ003-030300-
SOUTHERN NEVADA-UTAH

CITY           SKY/WX    TMP DP  RH WIND       PRES   REMARKS
LAS VEGAS      NOT AVBL
SALT LAKE CITY CLOUDY    81  48  31 SE18G24   29.95S
$$

NMZ009-TXZ055-030300-
NEW MEXICO-WEST TEXAS

CITY           SKY/WX    TMP DP  RH WIND       PRES   REMARKS
ALBUQUERQUE    MOCLDY    75  54  47 SE8       30.10F
EL PASO        TSTM      86  54  33 S25G35    29.95R
$$


........................KEY........................
SKY/WX - SKY CONDITION/WEATHER
TMP    - TEMPERATURE IN FAHRENHEIT
DP     - DEW POINT IN FAHRENHEIT
RH     - RELATIVE HUMIDITY IN PERCENT
WIND   - DIRECTION AND SPEED IN MILES PER HOUR (MPH)
VRB    - VARIABLE WIND DIRECTION
PRES   - MEAN SEA LEVEL PRESSURE IN INCHES OF MERCURY
         F - FALLING PRESSURE   R - RISING PRESSURE
         S - STEADY PRESSURE
VSB    - VISIBILITY IN MILES
HX     - HEAT INDEX IN FAHRENHEIT
WCI    - WIND CHILL INDEX IN FAHRENHEIT
TC     - TEMPERATURE IN CELSIUS WHICH IS ALSO KNOWN AS
         TEMPERATURE IN CENTIGRADE
AFB    - AIR FORCE BASE
         LUKE AFB IS LUKE AIR FORCE BASE
         DAVIS-MONTHAN IS DAVIS-MONTHAN AIR FORCE BASE
NAS    - NAVAL AIR STATION
         EL CENTRO NAS IS EL CENTRO NAVAL AIR STATION
N/A    - NOT AVAILABLE



USA.gov is the U.S. government's official web portal to all federal, state and local government web resources and services.